Flag for Argentina Weather past 2 weeks in Buenos Aires, Argentina

Now
68 °F

Clear.


Feels Like: 68 °F
Forecast: 63 / 76 °F
Wind: 14 mph from North

Location: Buenos Aires Airport

Current Time: Apr 19, 2015 at 2:46:24 AM

Latest Report: Apr 19, 2015 at 2:00 AM


Visibility: 10 mi

Pressure: 29.77 "Hg

Humidity: 69%

Dew point: 57 °F

Location of Buenos AiresLocation

Historic Weather in Buenos Aires — Graph

°F

Buenos Aires temperature yesterday

Maximum temperature yesterday: 77 °F (at 3:00 PM)
Minimum temperature yesterday: 55 °F (at 7:00 AM)
Average temperature yesterday: 66 °F

Past Weeks' High & Low Weather Summary

 TemperatureHumidityPressure
High82 °F (Apr 10, 12:00 PM)100% (Apr 17, 2:00 AM)30.24 "Hg (Apr 17, 2:00 AM)
Low54 °F (Apr 6, 5:00 AM)27% (Apr 18, 2:00 PM)29.77 "Hg (Apr 4, 1:00 AM)
Average69 °F69%30.00 "Hg
* Reported Midnight between Apr 3 and Apr 4 — Midnight between Apr 18 and Apr 19, Buenos Aires, Weather by CustomWeather, © 2015

Note: Actual official high and low records may vary slightly from our data, if they occured in-between our weather recording intervals... More about our weather records

Advertising

Buenos Aires weather history for previous 24 hours

 ConditionsComfort  
Time TempWeatherWind HumidityBarometerVisibility
12:00 AM
Sun, Apr 19
66 °FClear.12 mph78%29.77 "Hg10 mi
11:00 PM
Sat, Apr 18
68 °FClear.8 mph69%29.80 "Hg10 mi
10:00 PM70 °FClear.13 mph69%29.80 "Hg10 mi
9:00 PM70 °FClear.10 mph64%29.80 "Hg10 mi
8:00 PM68 °FClear.8 mph69%29.80 "Hg10 mi
7:00 PM70 °FClear.7 mph64%29.80 "Hg10 mi
6:00 PM73 °FClear.8 mph44%29.80 "Hg10 mi
5:00 PM77 °FSunny.5 mph30%29.83 "Hg10 mi
4:00 PM77 °FSunny.10 mph30%29.83 "Hg10 mi
3:00 PM77 °FSunny.10 mph28%29.86 "Hg10 mi
2:00 PM75 °FSunny.13 mph27%29.86 "Hg10 mi
1:00 PM73 °FSunny.14 mph29%29.92 "Hg10 mi
12:00 PM70 °FSunny.13 mph33%29.92 "Hg10 mi
11:00 AM68 °FSunny.14 mph49%29.95 "Hg10 mi
10:00 AM64 °FSunny.13 mph52%29.95 "Hg10 mi
9:00 AM59 °FSunny.14 mph59%29.95 "Hg10 mi
8:00 AM57 °FSunny.9 mph63%29.95 "Hg10 mi
7:00 AM55 °FSunny.9 mph67%29.92 "Hg10 mi
6:00 AM57 °FClear.10 mph59%29.92 "Hg10 mi
5:00 AM57 °FClear.12 mph59%29.92 "Hg10 mi
4:00 AM57 °FClear.9 mph59%29.92 "Hg10 mi
3:00 AM57 °FClear.9 mph59%29.92 "Hg10 mi
2:00 AM59 °FClear.9 mph55%29.92 "Hg10 mi
Weather by CustomWeather, © 2015

See weather overviewHow to use our weather pages